Über NanoFF A
Group: 3 satellites
Beschreibung wird geladen...
Live-Position
3D-Globus wird geladen...
Nächste Überflüge
Höhenverlauf
Altitude vs Time
uPlot chart will show altitude changes over time
Zweizeiliger Elementsatz
1 58810U 23185T 26063.15667627 .00005610 00000-0 33498-3 0 9990
2 58810 97.5372 132.0901 0009055 315.6848 44.3656 15.11481489117174
Epoch: 4. März 2026 •
Age: 18 hours
Aktueller Status
Höhe 549.0 km
Geschwindigkeit 7.59 km/s
Subsatellitenpunkt 79.75°N,
7.11°E
Startdatum 1. Dez. 2023
Alter 2.2 years
Typ other
Technische Details
Klassifizierung Payload
Masse 2.70 kg
Trockenmasse 2.70 kg
Gesamtmasse 2.70 kg
Länge 0.20 m
Durchmesser 0.10 m
Spannweite 0.20 m
Form Box
Hersteller TUB
Bus-Typ Cubesat 2U
Phasenstatus In Orbit
Besitzer/Staat TUB/D
Große Konstellationen
Loading constellations...